Location: Jabiru
(12.6667°S, 132.8333°E)
Time: 22:59:22
(UTC+09:30)

N. Korean satellite - Visible Passes

Search period start: 19 February 2019 00:00
Search period end: 01 March 2019 00:00
Orbit: 457 x 510 km, 97.2° (Epoch: 18 February)

Date Brightness Start Highest point End Pass type
(mag) Time Alt. Az. Time Alt. Az. Time Alt. Az.
21 Feb 8.0 06:04:45 10° NNE 06:08:00 41° ESE 06:11:19 10° S visible
22 Feb 9.9 05:41:07 10° ENE 05:43:23 17° ESE 05:45:40 10° SE visible
25 Feb 8.5 05:59:18 10° NE 06:02:27 34° ESE 06:05:40 10° SSE visible
26 Feb 10.1 05:35:57 10° ENE 05:37:50 14° ESE 05:39:43 10° SE visible
28 Feb 10.8 19:35:19 10° WSW 19:36:02 10° WSW 19:36:45 10° W visible
